This is the latest recevied weather packets stored in our database for station/object IZ6EGX-13. If no packets are shown the sender has not sent any weather packets the latest 10 day(s).
| Time | Temp. | Humidity | Pressure | Rain* | Wind** | Luminosity | Snow |
|---|---|---|---|---|---|---|---|
| 1777433180 | 16.67° C | 69% | 1015.2 hPa | 0 mm | - | - | - |
| 1777432580 | 16.67° C | 67% | 1015.3 hPa | 0 mm | - | - | - |
| 1777431980 | 16.67° C | 67% | 1015.2 hPa | 0 mm | - | - | - |
| 1777431380 | 16.67° C | 64% | 1015.2 hPa | 0 mm | - | - | - |
| 1777430780 | 16.67° C | 62% | 1015.2 hPa | 0 mm | - | - | - |
| 1777430180 | 16.67° C | 62% | 1015.2 hPa | 0 mm | - | - | - |
| 1777429580 | 16.67° C | 63% | 1015.2 hPa | 0 mm | - | - | - |
| 1777428980 | 16.67° C | 63% | 1015.2 hPa | 0 mm | - | - | - |
| 1777428380 | 16.67° C | 63% | 1015.2 hPa | 0 mm | - | - | - |
| 1777427780 | 16.67° C | 64% | 1015.2 hPa | 0 mm | - | - | - |
| 1777427180 | 16.67° C | 61% | 1015.1 hPa | 0 mm | - | - | - |
| 1777426580 | 17.22° C | 60% | 1015 hPa | 0 mm | - | - | - |
| 1777425980 | 17.22° C | 61% | 1014.9 hPa | 0 mm | - | - | - |
| 1777425380 | 16.67° C | 63% | 1015.1 hPa | 0 mm | - | - | - |
| 1777424780 | 16.67° C | 62% | 1015.1 hPa | 0 mm | - | - | - |
| 1777424180 | 16.67° C | 61% | 1015.1 hPa | 0 mm | - | - | - |
| 1777423580 | 16.67° C | 60% | 1015.1 hPa | 0 mm | - | - | - |
| 1777422980 | 17.22° C | 60% | 1015.2 hPa | 0 mm | - | - | - |
| 1777422380 | 17.22° C | 61% | 1015.2 hPa | 0 mm | - | - | - |
| 1777421780 | 17.22° C | 64% | 1015.2 hPa | 0 mm | - | - | - |
| 1777421180 | 17.22° C | 63% | 1015.2 hPa | 0 mm | - | - | - |
| 1777420580 | 17.22° C | 67% | 1015.2 hPa | 0 mm | - | - | - |
| 1777419980 | 17.22° C | 64% | 1015.4 hPa | 0 mm | - | - | - |
| 1777419380 | 17.22° C | 69% | 1015.4 hPa | 0 mm | - | - | - |
| 1777418780 | 17.22° C | 65% | 1015.5 hPa | 0 mm | - | - | - |
* Rain latest hour (hover to see other rain measurements)
** Current wind speed in m/s (hover to see current wind gust speed)